User: anonymous   Login
Location: Chatou
(48.8898°N, 2.1586°E)
Time: 11:32:14
(UTC+00:00)
Language:

Cosmos 1892 Rocket - Orbit

View from above orbital plane
View from above orbital plane
View from above satellite
View from above satellite

Ground track
Ground track

The orbit data is extracted from the following two-line orbital elements,

1 18422U 87088B   23150.92329223  .00000497  00000-0  57199-4 0  9996
2 18422  82.5101 299.4937 0020747 116.1485 244.1867 14.83578601902911
Epoch (UTC): 30 May 2023 22:09:32
Eccentricity: 0.0020747
inclination: 82.5101°
perigee height: 603 km
apogee height: 632 km
right ascension of ascending node: 299.4937°
argument of perigee: 116.1485°
revolutions per day: 14.83578601
mean anomaly at epoch: 244.1867°
orbit number at epoch: 90291

The dashed part of the orbit path shows where the satellite is in the earth's shadow,  

DLR